Overview Statistics Trail Chart Weather Telemetry Raw packets
 

This is the latest recevied weather packets stored in our database for station/object K1BES. If no packets are shown the sender has not sent any weather packets the latest 10 day(s).

<< 26 27 28 29 30 31 32 >>
Time Temp. Humidity Pressure Rain* Wind** Luminosity Snow
1788466323 32.22° C 70% 1015.2 hPa 0 mm - 143 W/m² -
1788466021 32.78° C 68% 1015.2 hPa 0 mm - 656 W/m² -
1788465717 32.78° C 69% 1015.3 hPa 0 mm - 753 W/m² -
1788465413 32.78° C 71% 1015.5 hPa 0 mm - 780 W/m² -
1788465109 32.78° C 71% 1015.4 hPa 0 mm - 793 W/m² -
1788464808 32.78° C 69% 1015.5 hPa 0 mm - 807 W/m² -
1788464503 32.22° C 70% 1015.7 hPa 0 mm - 820 W/m² -
1788464199 32.22° C 70% 1015.5 hPa 0 mm - 833 W/m² -
1788463894 32.78° C 68% 1015.5 hPa 0 mm - 846 W/m² -
1788463591 32.78° C 69% 1015.7 hPa 0 mm - 861 W/m² -
1788463291 32.78° C 69% 1015.4 hPa 0 mm - 882 W/m² -
1788462988 32.78° C 69% 1015.8 hPa 0 mm - 619 W/m² -
1788462682 32.78° C 64% 1015.8 hPa 0 mm - 927 W/m² -
1788462382 33.33° C 61% 1015.7 hPa 0 mm - 956 W/m² -
1788462082 33.33° C 63% 1015.4 hPa 0 mm - 951 W/m² -
1788461777 32.78° C 64% 1016 hPa 0 mm - 1023 W/m² -
1788461472 32.78° C 64% 1015.8 hPa 0 mm - 252 W/m² -
1788461169 32.78° C 67% 1015.8 hPa 0 mm - 1046 W/m² -
1788460869 32.22° C 70% 1016 hPa 0 mm - 982 W/m² -
1788460568 31.67° C 71% 1015.9 hPa 0 mm - 1028 W/m² -
1788460263 31.67° C 71% 1015.9 hPa 0 mm - 1063 W/m² -
1788459961 31.67° C 72% 1015.8 hPa 0 mm - 852 W/m² -
1788459658 31.67° C 73% 1015.6 hPa 0 mm - 1032 W/m² -
1788459356 31.67° C 69% 1015.6 hPa 0 mm - 1028 W/m² -
1788459051 31.11° C 73% 1015.7 hPa 0 mm - 879 W/m² -

* Rain latest hour (hover to see other rain measurements)
** Current wind speed in m/s (hover to see current wind gust speed)